Cherokee, IA

9:32 PM CDT on April 28, 2017 (GMT -0500)
Cherokee Municipal

Weather History for KCKP - December, 2012

Change the Weather History Date:

Thursday, December 13, 2012

  Actual Average Record
Temperature  
Mean Temperature 36 °F -  
Max Temperature 48 °F 32 °F 55 °F (1957)
Min Temperature 24 °F 11 °F -22 °F (1956)
Degree Days  
Heating Degree Days 29    
Moisture  
Dew Point 14 °F    
Average Humidity 41    
Maximum Humidity 78    
Minimum Humidity 24    
Precipitation  
Precipitation 0.00 in - - ()
Sea Level Pressure  
Sea Level Pressure 29.98 in    
Wind  
Wind Speed 9 mph (SW)    
Max Wind Speed 16 mph    
Max Gust Speed 21 mph    
Visibility 10 miles    
Events      
Averages and records for this station are not official NWS values.
T = Trace of Precipitation, MM = Missing Value Source: NWS Daily Summary

Daily Weather History Graph

Daily Weather History Graph

Search for Another Location

Airport or City:

Trip Planner

Search our weather history database for the weather conditions in past years. The results will help you decide how hot, cold, wet, or windy it might be!

Date:

Astronomy

Dec. 13, 2012 Rise Set
Actual Time 7:44 AM CST 4:48 PM CST
Civil Twilight 7:12 AM CST 5:20 PM CST
Nautical Twilight 6:36 AM CST 5:56 PM CST
Astronomical Twilight 6:02 AM CST 6:30 PM CST
Moon 7:53 AM CST (12/13) 5:33 PM CST (12/13)
Length of Visible Light 10h 08m
Length of Day
9h 04m
New Moon, 0% of the Moon is Illuminated
Dec 13
New Moon
Dec 19
First Quarter
Dec 28
Full
Jan 4
Last Quarter
Jan 11
New

Hourly Weather History & Observations

Time (CST) Temp. Windchill Dew Point Humidity Pressure Visibility Wind Dir Wind Speed Gust Speed Precip Events Conditions
12:15 AM 38.5 °F 29.9 °F 9.1 °F 30% 29.91 in 10.0 mi South 15.0 mph - N/A   Clear
12:35 AM 37.9 °F 28.9 °F 9.5 °F 31% 29.90 in 10.0 mi South 16.1 mph - N/A   Clear
12:55 AM 37.6 °F 28.8 °F 9.5 °F 31% 29.90 in 10.0 mi South 15.0 mph 20.7 mph N/A   Clear
1:15 AM 36.9 °F 29.1 °F 10.0 °F 33% 29.89 in 10.0 mi South 11.5 mph - N/A   Clear
1:35 AM 36.9 °F 29.1 °F 9.9 °F 33% 29.89 in 10.0 mi South 11.5 mph - N/A   Clear
1:55 AM 36.5 °F 29.2 °F 10.2 °F 34% 29.90 in 10.0 mi South 10.4 mph - N/A   Clear
2:15 AM 36.1 °F 28.7 °F 10.2 °F 34% 29.90 in 10.0 mi South 10.4 mph - N/A   Clear
2:35 AM 35.6 °F 28.0 °F 10.6 °F 36% 29.90 in 10.0 mi South 10.4 mph - N/A   Clear
2:55 AM 34.7 °F 28.8 °F 11.1 °F 38% 29.90 in 10.0 mi SSW 6.9 mph - N/A   Clear
3:15 AM 36.7 °F 30.5 °F 11.3 °F 35% 29.91 in 10.0 mi SSW 8.1 mph - N/A   Clear
3:35 AM 37.2 °F 30.0 °F 11.3 °F 34% 29.89 in 10.0 mi South 10.4 mph - N/A   Clear
3:55 AM 37.4 °F 30.3 °F 11.3 °F 34% 29.89 in 10.0 mi South 10.4 mph 16.1 mph N/A   Clear
4:15 AM 37.9 °F 30.5 °F 11.3 °F 33% 29.89 in 10.0 mi South 11.5 mph - N/A   Clear
4:35 AM 37.8 °F 30.7 °F 12.2 °F 35% 29.89 in 10.0 mi SSW 10.4 mph - N/A   Clear
4:55 AM 37.6 °F 31.0 °F 12.2 °F 35% 29.89 in 10.0 mi South 9.2 mph - N/A   Clear
5:15 AM 38.7 °F 31.8 °F 11.7 °F 33% 29.90 in 10.0 mi South 10.4 mph - N/A   Clear
5:35 AM 39.2 °F 31.6 °F 11.5 °F 32% 29.89 in 10.0 mi SSW 12.7 mph 17.3 mph N/A   Clear
6:15 AM 38.5 °F 31.1 °F 12.2 °F 34% 29.90 in 10.0 mi SSW 11.5 mph 17.3 mph N/A   Clear
6:35 AM 38.8 °F 32.6 °F 11.7 °F 33% 29.91 in 10.0 mi SSW 9.2 mph - N/A   Clear
6:55 AM 38.7 °F 32.4 °F 11.8 °F 33% 29.91 in 10.0 mi SSW 9.2 mph - N/A   Clear
7:15 AM 38.3 °F 31.4 °F 12.6 °F 35% 29.92 in 10.0 mi SSW 10.4 mph - N/A   Clear
7:35 AM 37.6 °F 31.0 °F 13.1 °F 37% 29.92 in 10.0 mi SSW 9.2 mph - N/A   Clear
7:55 AM 37.6 °F 32.3 °F 13.1 °F 37% 29.94 in 10.0 mi SSW 6.9 mph - N/A   Clear
8:15 AM 37.8 °F 30.7 °F 14.0 °F 38% 29.95 in 10.0 mi SSW 10.4 mph - N/A   Clear
8:35 AM 38.5 °F 32.1 °F 13.8 °F 37% 29.95 in 10.0 mi SSW 9.2 mph - N/A   Clear
8:55 AM 39.2 °F 34.2 °F 13.8 °F 36% 29.96 in 10.0 mi SW 6.9 mph - N/A   Clear
9:15 AM 40.5 °F 35.8 °F 13.3 °F 33% 29.97 in 10.0 mi SW 6.9 mph - N/A   Clear
9:35 AM 42.1 °F 36.1 °F 12.4 °F 30% 29.98 in 10.0 mi SW 10.4 mph - N/A   Clear
9:55 AM 43.2 °F 37.4 °F 12.0 °F 28% 29.98 in 10.0 mi SW 10.4 mph - N/A   Clear
10:15 AM 45.1 °F 40.8 °F 11.7 °F 26% 29.99 in 10.0 mi WSW 8.1 mph - N/A   Clear
10:35 AM 45.7 °F 40.6 °F 10.9 °F 24% 29.99 in 10.0 mi West 10.4 mph - N/A   Clear
10:55 AM 46.0 °F 41.4 °F 12.2 °F 26% 29.99 in 10.0 mi West 9.2 mph - N/A   Clear
11:15 AM 46.8 °F - 12.7 °F 25% 30.00 in 10.0 mi West 10.4 mph - N/A   Clear
11:35 AM 46.8 °F - 13.1 °F 26% 30.00 in 10.0 mi West 9.2 mph - N/A   Clear
11:55 AM 46.4 °F 42.9 °F 14.0 °F 27% 30.00 in 10.0 mi WNW 6.9 mph - N/A   Clear
12:15 PM 47.8 °F - 13.6 °F 25% 30.00 in 10.0 mi WNW 6.9 mph - N/A   Clear
12:35 PM 48.4 °F - 13.5 °F 25% 29.99 in 10.0 mi WNW 6.9 mph - N/A   Clear
12:55 PM 48.2 °F - 13.8 °F 25% 29.99 in 10.0 mi WNW 6.9 mph - N/A   Clear
1:15 PM 48.2 °F - 13.8 °F 25% 30.00 in 10.0 mi NW 4.6 mph - N/A   Clear
1:35 PM 48.0 °F - 13.8 °F 25% 30.00 in 10.0 mi WNW 6.9 mph - N/A   Clear
1:55 PM 48.4 °F - 13.3 °F 24% 30.00 in 10.0 mi WNW 8.1 mph - N/A   Clear
2:15 PM 46.2 °F 44.1 °F 14.0 °F 27% 30.01 in 10.0 mi West 4.6 mph - N/A   Clear
2:35 PM 46.2 °F 43.3 °F 15.1 °F 29% 30.01 in 10.0 mi West 5.8 mph - N/A   Clear
2:55 PM 45.5 °F 41.3 °F 16.2 °F 31% 30.02 in 10.0 mi West 8.1 mph - N/A   Clear
3:15 PM 45.7 °F 43.4 °F 15.8 °F 30% 30.02 in 10.0 mi NW 4.6 mph - N/A   Clear
3:35 PM 45.5 °F 42.5 °F 15.6 °F 30% 30.02 in 10.0 mi NW 5.8 mph - N/A   Clear
3:55 PM 44.1 °F 41.5 °F 15.6 °F 32% 30.03 in 10.0 mi NW 4.6 mph - N/A   Clear
4:35 PM 41.4 °F 39.4 °F 16.2 °F 36% 30.03 in 10.0 mi NW 3.5 mph - N/A   Clear
6:15 PM 32.4 °F - 17.6 °F 55% 30.06 in 10.0 mi Calm Calm - N/A   Clear
7:15 PM 32.4 °F 26.9 °F 19.4 °F 59% 30.07 in 10.0 mi NNE 5.8 mph - N/A   Clear
7:35 PM 32.0 °F 27.5 °F 19.8 °F 61% 30.08 in 10.0 mi NNE 4.6 mph - N/A   Clear
7:55 PM 32.0 °F 27.5 °F 20.3 °F 62% 30.07 in 10.0 mi NE 4.6 mph - N/A   Clear
8:15 PM 31.1 °F 25.4 °F 20.7 °F 65% 30.08 in 10.0 mi NNE 5.8 mph - N/A   Clear
8:35 PM 30.6 °F 27.1 °F 20.7 °F 67% 30.08 in 10.0 mi NNE 3.5 mph - N/A   Clear
8:55 PM 30.2 °F - 20.8 °F 68% 30.08 in 10.0 mi Calm Calm - N/A   Clear
9:15 PM 29.7 °F - 21.0 °F 70% 30.08 in 10.0 mi Calm Calm - N/A   Clear
9:35 PM 28.9 °F - 20.3 °F 70% 30.08 in 10.0 mi Calm Calm - N/A   Clear
9:55 PM 27.9 °F - 19.9 °F 72% 30.08 in 10.0 mi Calm Calm - N/A   Clear
10:15 PM 25.9 °F - 19.0 °F 75% 30.09 in 10.0 mi Calm Calm - N/A   Clear
10:35 PM 25.7 °F - 18.7 °F 75% 30.09 in 10.0 mi Calm Calm - N/A   Clear
10:55 PM 26.1 °F - 19.4 °F 76% 30.09 in 7.0 mi Calm Calm - N/A   Clear
11:15 PM 24.4 °F - 17.6 °F 75% 30.10 in 7.0 mi Calm Calm - N/A   Clear
11:35 PM 25.2 °F - 19.0 °F 78% 30.09 in 7.0 mi Calm Calm - N/A   Clear
11:55 PM 24.6 °F - 18.5 °F 78% 30.08 in 7.0 mi Calm Calm - N/A   Clear